This is the latest recevied weather packets stored in our database for station/object R2AKT-13. If no packets are shown the sender has not sent any weather packets the latest 10 day(s).
| Time | Temp. | Humidity | Pressure | Rain* | Wind** | Luminosity | Snow |
|---|---|---|---|---|---|---|---|
| 1788561741 | 14.44° C | 68% | 981.1 hPa | - | 3.13 m/s, 178° | - | - |
| 1788561216 | 14.44° C | 68% | 981.3 hPa | - | 3.13 m/s, 181° | - | - |
| 1788560696 | 14.44° C | 67% | 981.4 hPa | - | 2.24 m/s, 178° | - | - |
| 1788560191 | 15° C | 67% | 981.5 hPa | - | 3.13 m/s, 181° | - | - |
| 1788559656 | 15° C | 67% | 981.7 hPa | - | 2.68 m/s, 181° | - | - |
| 1788559126 | 15° C | 66% | 981.9 hPa | - | 3.13 m/s, 182° | - | - |
| 1788558530 | 15° C | 66% | 982.1 hPa | - | 3.58 m/s, 189° | - | - |
| 1788558050 | 15° C | 66% | 982.2 hPa | - | 4.02 m/s, 176° | - | - |
| 1788557521 | 15° C | 66% | 982.3 hPa | - | 3.13 m/s, 188° | - | - |
| 1788556951 | 15° C | 66% | 982.4 hPa | - | 4.02 m/s, 178° | - | - |
| 1788556411 | 15° C | 65% | 982.5 hPa | - | 3.13 m/s, 177° | - | - |
| 1788555841 | 15.56° C | 65% | 982.5 hPa | - | 3.13 m/s, 176° | - | - |
| 1788555332 | 15.56° C | 64% | 982.6 hPa | - | 1.79 m/s, 181° | - | - |
| 1788554843 | 15.56° C | 64% | 982.6 hPa | - | 2.68 m/s, 183° | - | - |
| 1788554326 | 15.56° C | 64% | 982.7 hPa | - | 3.58 m/s, 175° | - | - |
| 1788553741 | 16.11° C | 63% | 982.8 hPa | - | 3.58 m/s, 181° | - | - |
| 1788553151 | 16.11° C | 62% | 982.8 hPa | - | 3.58 m/s, 175° | - | - |
| 1788552604 | 16.11° C | 62% | 983 hPa | - | 3.58 m/s, 185° | - | - |
| 1788552111 | 16.11° C | 62% | 983.2 hPa | - | 3.13 m/s, 177° | - | - |
| 1788551556 | 16.11° C | 62% | 983.2 hPa | - | 2.68 m/s, 166° | - | - |
| 1788550981 | 16.11° C | 62% | 983.3 hPa | - | 2.68 m/s, 182° | - | - |
| 1788550445 | 16.11° C | 61% | 983.4 hPa | - | 3.58 m/s, 181° | - | - |
| 1788549906 | 16.11° C | 61% | 983.7 hPa | - | 2.68 m/s, 172° | - | - |
| 1788549386 | 16.67° C | 61% | 983.8 hPa | - | 3.13 m/s, 194° | - | - |
| 1788548821 | 16.67° C | 61% | 983.9 hPa | - | 2.68 m/s, 184° | - | - |
* Rain since midnight (hover to see other rain measurements)
** Current wind speed in m/s (hover to see current wind gust speed)